Volver al catálogo

COSMOS 2251 DEB

ActivoVLEO
NORAD 34316·DEBRIS·🇷🇺 Russia

Lanzado Jun 16, 1993 desde Plesetsk Cosmodrome

Loading…

Próximos Pases (próximas 24 horas)

TLE

ActualizadoSource: Space-Track

Época: Sep 13, 2026, 22:31 UTC

1 34316U 93036NN  26256.93834311  .00012273  00000-0  91685-3 0  9998
2 34316  74.0602 140.2128 0013165 178.3846 181.7387 15.02786660933303

Sigue COSMOS 2251 DEB en tiempo real con AllMySat

Download on the App Store